| time (UTC) | temp F | wind direction | speed MPH | gust MPH | rain 1hr in | rain 24hr in | rain mn in | humidity % | barometer mb |
| 20260510010214 | 59 | 20 | 1.0 | 4.0 | 0.00 | 0.00 | 0.02 | 68 | 1029.3 |
| 20260510004714 | 58 | 318 | 1.0 | 3.0 | 0.00 | 0.00 | 0.02 | 69 | 1029.3 |
| 20260510003214 | 58 | 52 | 1.0 | 2.0 | 0.00 | 0.00 | 0.02 | 71 | 1029.3 |
| 20260510001714 | 58 | 58 | 1.0 | 2.0 | 0.00 | 0.00 | 0.02 | 71 | 1029.3 |
| 20260510000214 | 58 | 49 | 0.0 | 1.0 | 0.00 | 0.00 | 0.02 | 75 | 1029.3 |
| 20260509234714 | 57 | 2 | 0.0 | 0.0 | 0.00 | 0.00 | 0.02 | 77 | 1029.3 |
| 20260509233214 | 57 | 0 | 1.0 | 1.0 | 0.00 | 0.00 | 0.02 | 79 | 1029.3 |
| 20260509231714 | 57 | 329 | 0.0 | 0.0 | 0.00 | 0.00 | 0.02 | 81 | 1029.3 |
| 20260509230214 | 56 | 343 | 0.0 | 1.0 | 0.00 | 0.00 | 0.02 | 83 | 1029.3 |
| 20260509224715 | 56 | 28 | 0.0 | 0.0 | 0.00 | 0.00 | 0.02 | 87 | 1029.0 |
| 20260509223214 | 55 | 29 | 0.0 | 0.0 | 0.00 | 0.00 | 0.02 | 89 | 1028.6 |
| 20260509221715 | 54 | 29 | 0.0 | 0.0 | 0.00 | 0.00 | 0.02 | 91 | 1028.6 |
| 20260509220214 | 54 | 28 | 0.0 | 0.0 | 0.00 | 0.00 | 0.02 | 92 | 1028.6 |
| 20260509214714 | 54 | 29 | 0.0 | 0.0 | 0.00 | 0.00 | 0.02 | 92 | 1028.3 |
| 20260509213215 | 54 | 13 | 0.0 | 0.0 | 0.00 | 0.00 | 0.02 | 92 | 1028.0 |
| 20260509211715 | 54 | 14 | 0.0 | 0.0 | 0.00 | 0.00 | 0.02 | 92 | 1028.3 |
| 20260509210214 | 54 | 14 | 0.0 | 0.0 | 0.00 | 0.00 | 0.02 | 91 | 1028.0 |
| 20260509204714 | 54 | 14 | 0.0 | 0.0 | 0.00 | 0.00 | 0.02 | 91 | 1027.6 |
| 20260509203214 | 54 | 350 | 0.0 | 0.0 | 0.00 | 0.00 | 0.02 | 90 | 1027.6 |
| 20260509201714 | 54 | 350 | 0.0 | 0.0 | 0.00 | 0.00 | 0.02 | 90 | 1027.6 |
| 20260509200214 | 54 | 0 | 0.0 | 1.0 | 0.00 | 0.00 | 0.02 | 91 | 1027.3 |
| 20260509194715 | 54 | 11 | 1.0 | 2.0 | 0.00 | 0.00 | 0.02 | 93 | 1027.3 |
| 20260509193215 | 54 | 13 | 0.0 | 2.0 | 0.00 | 0.00 | 0.02 | 94 | 1026.9 |
| 20260509191715 | 54 | 339 | 2.0 | 2.0 | 0.00 | 0.00 | 0.02 | 94 | 1026.6 |
| 20260509190214 | 54 | 350 | 0.0 | 1.0 | 0.00 | 0.00 | 0.02 | 95 | 1026.6 |
| 20260509184714 | 54 | 334 | 2.0 | 2.0 | 0.00 | 0.00 | 0.02 | 95 | 1026.6 |
| 20260509183214 | 54 | 47 | 0.0 | 1.0 | 0.00 | 0.00 | 0.02 | 95 | 1026.6 |
| 20260509181714 | 54 | 46 | 0.0 | 0.0 | 0.00 | 0.00 | 0.02 | 95 | 1026.3 |
| 20260509180214 | 54 | 46 | 0.0 | 1.0 | 0.01 | 0.00 | 0.02 | 95 | 1026.3 |
| 20260509174715 | 54 | 47 | 0.0 | 0.0 | 0.01 | 0.00 | 0.02 | 95 | 1026.3 |
| 20260509173214 | 54 | 49 | 0.0 | 0.0 | 0.01 | 0.00 | 0.02 | 95 | 1026.3 |
| 20260509171714 | 55 | 50 | 0.0 | 0.0 | 0.01 | 0.00 | 0.02 | 95 | 1026.3 |
| 20260509170215 | 55 | 56 | 0.0 | 0.0 | 0.00 | 0.00 | 0.01 | 94 | 1026.3 |
| 20260509164714 | 55 | 5 | 0.0 | 1.0 | 0.00 | 0.00 | 0.01 | 94 | 1026.6 |
| 20260509163214 | 55 | 13 | 0.0 | 1.0 | 0.01 | 0.00 | 0.01 | 94 | 1026.3 |
| 20260509161725 | 55 | 14 | 0.0 | 0.0 | 0.01 | 0.00 | 0.01 | 94 | 1026.6 |
| 20260509160214 | 55 | 345 | 0.0 | 0.0 | 0.01 | 0.00 | 0.01 | 94 | 1026.6 |
| 20260509154714 | 55 | 355 | 0.0 | 0.0 | 0.01 | 0.00 | 0.01 | 94 | 1026.6 |
| 20260509153214 | 55 | 356 | 0.0 | 1.0 | 0.00 | 0.00 | 0.00 | 94 | 1026.6 |
| 20260509151715 | 55 | 2 | 1.0 | 1.0 | 0.00 | 0.00 | 0.00 | 94 | 1026.6 |
| 20260509150214 | 55 | 355 | 0.0 | 0.0 | 0.00 | 0.00 | 0.00 | 94 | 1026.6 |
| 20260509144714 | 55 | 355 | 0.0 | 0.0 | 0.00 | 0.00 | 0.00 | 93 | 1026.6 |
| 20260509143214 | 55 | 357 | 0.0 | 0.0 | 0.00 | 0.00 | 0.00 | 93 | 1026.9 |
| 20260509141714 | 55 | 347 | 0.0 | 0.0 | 0.00 | 0.00 | 0.00 | 93 | 1026.9 |
| 20260509140215 | 55 | 20 | 1.0 | 1.0 | 0.00 | 0.00 | 0.00 | 92 | 1026.6 |
| 20260509134715 | 55 | 307 | 0.0 | 0.0 | 0.00 | 0.00 | 0.06 | 92 | 1026.6 |
| 20260509133214 | 55 | 329 | 1.0 | 1.0 | 0.00 | 0.00 | 0.06 | 91 | 1026.9 |
| 20260509131714 | 56 | 13 | 0.0 | 0.0 | 0.00 | 0.00 | 0.06 | 90 | 1026.9 |
| 20260509130215 | 56 | 10 | 1.0 | 1.0 | 0.00 | 0.00 | 0.06 | 89 | 1026.9 |
| 20260509124715 | 56 | 60 | 1.0 | 1.0 | 0.00 | 0.00 | 0.06 | 88 | 1026.6 |
| 20260509123213 | 56 | 25 | 0.0 | 0.0 | 0.00 | 0.00 | 0.06 | 88 | 1026.9 |
| 20260509121715 | 56 | 12 | 0.0 | 0.0 | 0.00 | 0.00 | 0.06 | 88 | 1026.9 |
| 20260509120214 | 56 | 13 | 0.0 | 0.0 | 0.00 | 0.00 | 0.06 | 88 | 1026.9 |
| 20260509114714 | 56 | 14 | 0.0 | 0.0 | 0.00 | 0.00 | 0.06 | 88 | 1026.6 |
| 20260509113215 | 56 | 16 | 1.0 | 1.0 | 0.00 | 0.00 | 0.06 | 88 | 1026.6 |
| 20260509111714 | 56 | 21 | 0.0 | 1.0 | 0.00 | 0.00 | 0.06 | 88 | 1026.6 |
| 20260509110215 | 56 | 19 | 2.0 | 2.0 | 0.00 | 0.00 | 0.06 | 88 | 1026.6 |
| 20260509104714 | 56 | 37 | 2.0 | 3.0 | 0.00 | 0.00 | 0.06 | 88 | 1026.3 |
| 20260509103214 | 56 | 17 | 1.0 | 2.0 | 0.00 | 0.00 | 0.06 | 89 | 1026.3 |
| 20260509101714 | 56 | 63 | 0.0 | 2.0 | 0.00 | 0.00 | 0.06 | 88 | 1026.3 |
| 20260509100214 | 57 | 17 | 0.0 | 1.0 | 0.00 | 0.00 | 0.06 | 88 | 1026.3 |
| 20260509094714 | 57 | 54 | 0.0 | 1.0 | 0.00 | 0.00 | 0.06 | 88 | 1026.3 |
| 20260509093215 | 57 | 60 | 0.0 | 1.0 | 0.00 | 0.00 | 0.06 | 88 | 1026.3 |
| 20260509091715 | 57 | 60 | 0.0 | 1.0 | 0.00 | 0.00 | 0.06 | 88 | 1026.3 |
| 20260509090214 | 57 | 60 | 0.0 | 2.0 | 0.00 | 0.00 | 0.06 | 87 | 1026.3 |
| 20260509084714 | 57 | 1 | 1.0 | 1.0 | 0.00 | 0.00 | 0.06 | 87 | 1025.9 |
| 20260509083214 | 57 | 50 | 1.0 | 2.0 | 0.00 | 0.00 | 0.06 | 86 | 1025.6 |
| 20260509081715 | 58 | 42 | 0.0 | 3.0 | 0.00 | 0.00 | 0.06 | 85 | 1025.6 |
| 20260509080214 | 58 | 23 | 0.0 | 2.0 | 0.00 | 0.00 | 0.06 | 84 | 1025.6 |
| 20260509074714 | 58 | 6 | 1.0 | 2.0 | 0.00 | 0.00 | 0.06 | 84 | 1025.6 |
| 20260509073214 | 58 | 36 | 1.0 | 2.0 | 0.00 | 0.00 | 0.06 | 84 | 1025.3 |
| 20260509071714 | 58 | 80 | 1.0 | 4.0 | 0.00 | 0.00 | 0.06 | 83 | 1024.9 |
| 20260509070214 | 59 | 6 | 1.0 | 3.0 | 0.00 | 0.00 | 0.06 | 81 | 1024.9 |
| 20260509064715 | 59 | 23 | 3.0 | 3.0 | 0.00 | 0.00 | 0.06 | 81 | 1024.9 |
| 20260509063215 | 60 | 350 | 1.0 | 4.0 | 0.00 | 0.00 | 0.06 | 80 | 1024.9 |
| 20260509061714 | 60 | 27 | 1.0 | 3.0 | 0.00 | 0.00 | 0.06 | 79 | 1024.6 |
| 20260509060214 | 60 | 37 | 2.0 | 4.0 | 0.00 | 0.00 | 0.06 | 78 | 1024.6 |
| 20260509054714 | 61 | 51 | 1.0 | 3.0 | 0.00 | 0.00 | 0.06 | 76 | 1024.6 |
| 20260509053214 | 61 | 78 | 3.0 | 3.0 | 0.00 | 0.00 | 0.06 | 75 | 1024.6 |
| 20260509051714 | 60 | 50 | 1.0 | 1.0 | 0.00 | 0.00 | 0.06 | 78 | 1024.6 |
| 20260509050214 | 60 | 76 | 2.0 | 2.0 | 0.00 | 0.00 | 0.06 | 78 | 1024.6 |
| 20260509044714 | 60 | 52 | 3.0 | 3.0 | 0.00 | 0.00 | 0.06 | 78 | 1024.6 |
| 20260509043215 | 60 | 38 | 1.0 | 3.0 | 0.00 | 0.00 | 0.06 | 78 | 1024.6 |
| 20260509041714 | 60 | 354 | 2.0 | 3.0 | 0.00 | 0.00 | 0.06 | 77 | 1024.6 |
| 20260509040214 | 59 | 5 | 1.0 | 2.0 | 0.00 | 0.00 | 0.06 | 80 | 1024.6 |
| 20260509034714 | 59 | 69 | 2.0 | 4.0 | 0.00 | 0.00 | 0.06 | 79 | 1024.6 |
| 20260509033214 | 60 | 76 | 1.0 | 4.0 | 0.00 | 0.00 | 0.06 | 80 | 1024.6 |
| 20260509031715 | 60 | 42 | 0.0 | 3.0 | 0.00 | 0.00 | 0.06 | 78 | 1024.6 |
| 20260509030214 | 60 | 68 | 2.0 | 3.0 | 0.00 | 0.00 | 0.06 | 80 | 1024.9 |
| 20260509024714 | 58 | 39 | 2.0 | 6.0 | 0.00 | 0.00 | 0.06 | 82 | 1024.9 |
| 20260509023232 | 59 | 74 | 3.0 | 4.0 | 0.00 | 0.00 | 0.06 | 82 | 1025.3 |
| 20260509021715 | 59 | 100 | 0.0 | 3.0 | 0.00 | 0.00 | 0.06 | 83 | 1025.6 |
| 20260509020214 | 59 | 44 | 3.0 | 3.0 | 0.00 | 0.00 | 0.06 | 81 | 1025.6 |
| 20260509014714 | 60 | 55 | 2.0 | 4.0 | 0.00 | 0.00 | 0.06 | 79 | 1025.6 |
| 20260509013214 | 57 | 54 | 2.0 | 2.0 | 0.00 | 0.00 | 0.06 | 87 | 1025.6 |
| 20260509011714 | 57 | 40 | 0.0 | 3.0 | 0.00 | 0.00 | 0.06 | 88 | 1025.9 |